STARLINK-35884 (67044 NORAD) Tracking and Keplerian Element Data

This shows tracking and keplerian element data for the satellite.

Feedback or suggestion? Click here.




ElementValue
Catalog67044
NameSTARLINK-35884
Epoch Orbit151
Epoch Day354.25003472
Epoch Year2025
RAAN136.2243
Inclination43.0001
Eccentricity0.0001824
Argument of Perigee262.987
Mean Anonmoly350.6881
Mean Motion15.8906113
Decay Rate-0.01407269
L11 67044U 25294Q 25354.25003472 -.01407269 00000+0 -54301-2 0 9990
L22 67044 43.0001 136.2243 0001824 262.9870 350.6881 15.89061130 1513



Live tracking and technical data element details for STARLINK-35884 (NORAD 67044). STARLINK-35884 can be tracked NOW for your location showing map with azimuth and elevation plus other details from your city location.







IsCatalogInMostPopularTable: catalog: 67044, numindb: 72
Update: records affected: 1



GetName: 67044 STARLINK-35884

Hit Count: updated at: Thu, 16 Apr 2026 06:06:12 GMT